Date String (YYYY-MM-DD hh:mm:ss) UTC,Instrument flags,absolute air pressure of the measurement (hPa),sample flow rate (lpm),inlet stack bypass flow (lpm),air temperature of the measurement (°C),ambient temperature measured by the external sensor (°C),aerosol sample conditioner tube jacket temperature (°C),OPC LED temperature (°C),internal box temperature (°C),relative humidity of the measurement (%),span deviation,mass concentration of particles derived from Lorenz-Mie calculation of OPC scattering (μg/m³),mass concentration of particles derived from Lorenz-Mie calculation of OPC scattering (μg/m³),mass concentration of particles derived from Lorenz-Mie calculation of OPC scattering (μg/m³)
DateTimeUTC,F1_M11,P_M11,Q1_M11,Q2_M11,T1_M11,T2_M11,T3_M11,T4_M11,T5_M11,U1_M11,ZSPAN_M11,X0_M11,X2_M11,X1_M11
2024-04-05 08:00:00,SystemResetWarning,0821.4,5.01,000.00,025.4,024.5,000.0,034.1,027.3,010.8,0000.0,0008.41,0002.99,0002.05
2024-04-05 08:01:00,SystemResetWarning,0821.3,5.01,000.00,025.4,024.5,000.0,034.1,027.3,010.9,0000.0,0006.81,0002.93,0002.03
2024-04-05 08:02:00,SystemResetWarning,0821.3,4.99,000.00,025.4,024.5,000.0,034.1,027.3,010.8,0000.0,0007.28,0002.89,0002.02
2024-04-05 08:03:00,SystemResetWarning,0821.3,4.99,000.00,025.4,024.5,000.0,034.1,027.3,010.8,0000.0,0007.15,0002.81,0002.02
2024-04-05 08:04:00,SystemResetWarning,0821.3,5.00,000.00,025.4,024.5,000.0,034.1,027.2,010.6,0000.0,0007.39,0002.84,0002.02
2024-04-05 08:05:00,SystemResetWarning,0821.3,5.00,000.00,025.4,024.5,000.0,034.1,027.2,010.7,0000.0,0007.46,0002.89,0002.03
2024-04-05 08:06:00,SystemResetWarning,0821.3,5.00,000.00,025.4,024.5,000.0,034.0,027.2,010.8,0000.0,0008.03,0002.88,0002.02
2024-04-05 08:07:00,SystemResetWarning,0821.3,5.00,000.00,025.4,024.5,000.0,034.0,027.2,010.9,0000.0,0007.94,0002.86,0002.03
2024-04-05 08:08:00,SystemResetWarning,0821.3,5.00,000.00,025.4,024.5,000.0,034.0,027.2,011.0,0000.0,0007.72,0002.82,0002.02
2024-04-05 08:09:00,SystemResetWarning,0821.3,5.02,000.00,025.4,024.5,000.0,034.0,027.2,011.0,0000.0,0007.62,0002.81,0002.02
2024-04-05 08:10:00,SystemResetWarning,0821.4,5.00,000.00,025.4,024.5,000.0,034.0,027.2,010.9,0000.0,0007.54,0002.79,0002.04
2024-04-05 08:11:00,SystemResetWarning,0821.3,4.99,000.00,025.4,024.5,000.0,034.0,027.2,010.9,0000.0,0007.24,0002.75,0002.05
2024-04-05 08:12:00,SystemResetWarning,0821.3,5.00,000.00,025.4,024.5,000.0,034.0,027.2,010.8,0000.0,0007.87,0002.74,0002.05
2024-04-05 08:13:00,SystemResetWarning,0821.3,5.01,000.00,025.4,024.5,000.0,034.0,027.2,011.0,0000.0,0008.31,0002.73,0002.05
2024-04-05 08:14:00,SystemResetWarning,0821.3,5.00,000.00,025.4,024.5,000.0,034.0,027.2,011.1,0000.0,0008.49,0002.76,0002.04
2024-04-05 08:15:00,SystemResetWarning,0821.3,5.00,000.00,025.4,024.5,000.0,034.0,027.2,011.3,0000.0,0008.64,0002.75,0002.05
2024-04-05 08:16:00,SystemResetWarning,0821.4,5.01,000.00,025.4,024.5,000.0,034.0,027.2,011.4,0000.0,0009.04,0002.72,0002.04
2024-04-05 08:17:00,SystemResetWarning,0821.4,5.00,000.00,025.4,024.4,000.0,034.0,027.2,011.3,0000.0,0009.15,0002.74,0002.05
2024-04-05 08:18:00,SystemResetWarning,0821.4,4.99,000.00,025.3,024.4,000.0,034.0,027.2,011.3,0000.0,0009.66,0002.75,0002.05
2024-04-05 08:19:00,SystemResetWarning,0821.3,5.00,000.00,025.4,024.4,000.0,034.0,027.2,011.4,0000.0,0010.65,0002.77,0002.03
2024-04-05 08:20:00,SystemResetWarning,0821.3,5.00,000.00,025.3,024.4,000.0,034.0,027.2,011.4,0000.0,0011.92,0002.77,0002.02
2024-04-05 08:21:00,SystemResetWarning,0821.3,5.01,000.00,025.3,024.4,000.0,034.0,027.2,011.3,0000.0,0011.88,0002.75,0002.01
2024-04-05 08:22:00,SystemResetWarning,0821.3,5.01,000.00,025.3,024.4,000.0,034.0,027.2,011.4,0000.0,0012.03,0002.79,0002.01
2024-04-05 08:23:00,SystemResetWarning,0821.3,5.00,000.00,025.3,024.4,000.0,034.0,027.2,011.5,0000.0,0011.65,0002.80,0002.01
2024-04-05 08:24:00,SystemResetWarning,0821.3,4.99,000.00,025.3,024.4,000.0,034.0,027.2,011.6,0000.0,0011.01,0002.78,0002.03
2024-04-05 08:25:00,SystemResetWarning,0821.3,4.99,000.00,025.3,024.4,000.0,034.0,027.2,011.6,0000.0,0011.14,0002.76,0002.04
2024-04-05 08:26:00,SystemResetWarning,0821.3,5.02,000.00,025.3,024.4,000.0,034.0,027.2,011.6,0000.0,0011.07,0002.78,0002.05
2024-04-05 08:27:00,SystemResetWarning,0821.3,5.01,000.00,025.3,024.4,000.0,034.0,027.1,011.6,0000.0,0010.38,0002.77,0002.04
2024-04-05 08:28:00,SystemResetWarning,0821.3,4.99,000.00,025.3,024.4,000.0,034.0,027.1,011.6,0000.0,0010.18,0002.75,0002.04
2024-04-05 08:29:00,SystemResetWarning,0821.3,5.00,000.00,025.3,024.4,000.0,034.0,027.1,011.6,0000.0,0009.39,0002.77,0002.05
2024-04-05 08:30:00,SystemResetWarning,0821.3,5.00,000.00,025.3,024.4,000.0,034.0,027.1,011.6,0000.0,0008.63,0002.79,0002.07
2024-04-05 08:31:00,SystemResetWarning,0821.3,4.99,000.00,025.3,024.4,000.0,033.9,027.1,011.7,0000.0,0007.44,0002.84,0002.08
2024-04-05 08:32:00,SystemResetWarning,0821.2,5.00,000.00,025.3,024.3,000.0,033.9,027.1,011.8,0000.0,0007.39,0002.90,0002.09
2024-04-05 08:33:00,SystemResetWarning,0821.2,5.00,000.00,025.3,024.3,000.0,033.9,027.1,011.8,0000.0,0007.74,0002.87,0002.08
2024-04-05 08:34:00,SystemResetWarning,0821.2,5.00,000.00,025.3,024.3,000.0,033.9,027.1,011.8,0000.0,0007.87,0002.90,0002.08
2024-04-05 08:35:00,SystemResetWarning,0821.2,5.00,000.00,025.3,024.3,000.0,033.9,027.1,011.9,0000.0,0007.83,0002.93,0002.07
2024-04-05 08:36:00,SystemResetWarning,0821.2,5.01,000.00,025.3,024.3,000.0,033.9,027.1,012.0,0000.0,0007.53,0003.02,0002.06
2024-04-05 08:37:00,SystemResetWarning,0821.2,5.00,000.00,025.3,024.3,000.0,033.9,027.1,012.1,0000.0,0007.60,0003.10,0002.06
2024-04-05 08:38:00,SystemResetWarning,0821.2,5.01,000.00,025.3,024.3,000.0,033.9,027.1,012.0,0000.0,0007.76,0003.15,0002.07
2024-04-05 08:39:00,SystemResetWarning,0821.2,5.00,000.00,025.2,024.3,000.0,033.9,027.1,012.0,0000.0,0008.00,0003.17,0002.07
2024-04-05 08:40:00,SystemResetWarning,0821.2,4.99,000.00,025.2,024.3,000.0,033.9,027.1,012.0,0000.0,0008.05,0003.18,0002.07
2024-04-05 08:41:00,SystemResetWarning,0821.2,4.99,000.00,025.2,024.3,000.0,033.9,027.0,012.0,0000.0,0008.37,0003.18,0002.07
2024-04-05 08:42:00,SystemResetWarning,0821.2,5.01,000.00,025.2,024.3,000.0,033.9,027.1,012.0,0000.0,0008.29,0003.16,0002.07
2024-04-05 08:43:00,SystemResetWarning,0821.2,5.00,000.00,025.2,024.3,000.0,033.9,027.0,011.9,0000.0,0008.43,0003.11,0002.06
2024-04-05 08:44:00,SystemResetWarning,0821.2,5.00,000.00,025.2,024.3,000.0,033.9,027.0,011.9,0000.0,0008.02,0003.08,0002.05
2024-04-05 08:45:00,SystemResetWarning,0821.2,5.00,000.00,025.2,024.3,000.0,033.9,027.0,011.9,0000.0,0008.16,0003.04,0002.03
2024-04-05 08:46:00,SystemResetWarning,0821.2,4.99,000.00,025.2,024.3,000.0,033.9,027.0,011.9,0000.0,0008.19,0003.05,0002.02
2024-04-05 08:47:00,SystemResetWarning,0821.2,4.99,000.00,025.2,024.3,000.0,033.8,027.0,011.9,0000.0,0007.96,0003.01,0002.04
2024-04-05 08:48:00,SystemResetWarning,0821.2,5.01,000.00,025.2,024.2,000.0,033.8,027.0,011.9,0000.0,0008.21,0002.98,0002.03
2024-04-05 08:49:00,SystemResetWarning,0821.1,5.00,000.00,025.2,024.2,000.0,033.8,027.0,011.8,0000.0,0008.36,0002.92,0002.02
2024-04-05 08:50:00,SystemResetWarning,0821.1,4.99,000.00,025.1,024.2,000.0,033.8,027.0,011.8,0000.0,0008.79,0002.89,0002.02
2024-04-05 08:51:00,SystemResetWarning,0821.1,4.99,000.00,025.1,024.2,000.0,033.8,027.0,011.8,0000.0,0008.73,0002.86,0002.00
2024-04-05 08:52:00,SystemResetWarning,0821.1,5.00,000.00,025.1,024.2,000.0,033.8,027.0,011.8,0000.0,0008.27,0002.76,0001.99
2024-04-05 08:53:00,SystemResetWarning,0821.1,5.01,000.00,025.1,024.2,000.0,033.8,027.0,011.7,0000.0,0008.13,0002.69,0001.98
2024-04-05 08:54:00,SystemResetWarning,0821.4,5.01,000.00,025.1,024.2,000.0,033.8,026.9,011.7,0000.0,0007.94,0002.74,0001.97
2024-04-05 08:55:00,SystemResetWarning,0821.4,5.00,000.00,025.1,024.2,000.0,033.8,026.9,011.7,0000.0,0008.00,0002.76,0001.98
2024-04-05 08:56:00,SystemResetWarning,0821.4,4.99,000.00,025.1,024.2,000.0,033.8,026.9,011.7,0000.0,0007.87,0002.83,0001.99
2024-04-05 08:57:00,SystemResetWarning,0821.0,4.99,000.00,025.1,024.2,000.0,033.8,026.9,011.7,0000.0,0008.23,0002.84,0002.00
2024-04-05 08:58:00,SystemResetWarning,0821.1,5.00,000.00,025.1,024.2,000.0,033.8,026.9,011.6,0000.0,0008.27,0002.82,0001.99
2024-04-05 08:59:00,SystemResetWarning,0821.1,5.01,000.00,025.1,024.2,000.0,033.8,026.9,011.6,0000.0,0007.94,0002.76,0001.98
